Burns, OR

11:19 AM PDT on August 27, 2016 (GMT -0700)
Burns Municipal

Weather History for KBNO - October, 2012

Change the Weather History Date:

Saturday, October 27, 2012

  Actual Average Record
Temperature  
Mean Temperature 35 °F 41 °F  
Max Temperature 47 °F 56 °F 79 °F (2003)
Min Temperature 23 °F 26 °F 11 °F (2002)
Degree Days  
Heating Degree Days 30 24  
Month to date heating degree days 577 531  
Since 1 July heating degree days 765 950  
Cooling Degree Days 0 0  
Month to date cooling degree days 0 0  
Year to date cooling degree days 309 215  
Moisture  
Dew Point 30 °F    
Average Humidity 73    
Maximum Humidity 92    
Minimum Humidity 53    
Precipitation  
Precipitation T in 0.03 in 0.47 in (1961)
Month to date precipitation 0.77 0.65  
Year to date precipitation 7.20 8.07  
Sea Level Pressure  
Sea Level Pressure 30.18 in    
Wind  
Wind Speed 1 mph (North)    
Max Wind Speed 7 mph    
Max Gust Speed 9 mph    
Visibility 10 miles    
Events Rain    
T = Trace of Precipitation, MM = Missing Value Source: NWS Daily Summary

Daily Weather History Graph

Daily Weather History Graph

Search for Another Location

Airport or City:

Trip Planner

Search our weather history database for the weather conditions in past years. The results will help you decide how hot, cold, wet, or windy it might be!

Date:

Astronomy

Oct. 27, 2012 Rise Set
Actual Time 7:25 AM PDT 5:52 PM PDT
Civil Twilight 6:56 AM PDT 6:22 PM PDT
Nautical Twilight 6:22 AM PDT 6:55 PM PDT
Astronomical Twilight 5:49 AM PDT 7:29 PM PDT
Moon 4:43 PM PDT 5:22 AM PDT
Length of Visible Light 11h 26m
Length of Day
10h 27m
Waxing Gibbous, 96% of the Moon is Illuminated
Oct 27
Waxing Gibbous
Oct 29
Full
Nov 6
Last Quarter
Nov 13
New
Nov 20
First Quarter

Hourly Weather History & Observations

Time (PDT) Temp. Windchill Dew Point Humidity Pressure Visibility Wind Dir Wind Speed Gust Speed Precip Events Conditions
12:53 AM 28.9 °F 23.9 °F 27.0 °F 92% 30.21 in 10.0 mi North 4.6 mph - N/A   Clear
1:53 AM 27.0 °F - 24.1 °F 89% 30.20 in 10.0 mi Calm Calm - N/A   Clear
2:53 AM 26.1 °F - 24.1 °F 92% 30.20 in 10.0 mi Calm Calm - N/A   Clear
3:53 AM 26.1 °F - 24.1 °F 92% 30.19 in 10.0 mi Calm Calm - N/A   Clear
4:53 AM 26.1 °F - 24.1 °F 92% 30.19 in 10.0 mi Calm Calm - N/A   Clear
5:53 AM 24.1 °F - 21.9 °F 91% 30.22 in 10.0 mi Calm Calm - N/A   Clear
6:53 AM 26.1 °F 21.9 °F 24.1 °F 92% 30.23 in 10.0 mi NNW 3.5 mph - N/A   Clear
7:53 AM 28.0 °F - 27.0 °F 96% 30.24 in 10.0 mi Calm Calm - N/A   Clear
8:53 AM 32.0 °F - 28.9 °F 88% 30.24 in 10.0 mi Calm Calm - N/A   Overcast
9:53 AM 36.0 °F - 32.0 °F 86% 30.22 in 10.0 mi Calm Calm - N/A   Overcast
10:53 AM 39.0 °F - 32.0 °F 76% 30.20 in 10.0 mi Calm Calm - 0.00 in Rain Light Rain
11:13 AM 39.2 °F - 30.2 °F 70% 30.14 in 10.0 mi Calm Calm - 0.00 in   Overcast
11:26 AM 39.2 °F - 32.0 °F 75% 30.14 in 10.0 mi Calm Calm - 0.00 in   Overcast
11:53 AM 41.0 °F 39.0 °F 30.9 °F 67% 30.19 in 10.0 mi NNE 3.5 mph - 0.00 in   Overcast
12:53 PM 42.1 °F 40.2 °F 30.9 °F 65% 30.19 in 10.0 mi NNW 3.5 mph - 0.00 in Rain Light Rain
1:53 PM 44.1 °F - 28.9 °F 55% 30.17 in 10.0 mi Calm Calm - 0.00 in Rain Light Rain
2:53 PM 44.1 °F - 30.0 °F 58% 30.15 in 10.0 mi Calm Calm - 0.00 in   Overcast
3:53 PM 45.0 °F 42.6 °F 30.9 °F 58% 30.14 in 10.0 mi SSE 4.6 mph - N/A   Mostly Cloudy
4:53 PM 45.0 °F - 30.9 °F 58% 30.14 in 10.0 mi Calm Calm - N/A   Partly Cloudy
5:53 PM 43.0 °F - 32.0 °F 65% 30.14 in 9.0 mi Calm Calm - N/A   Mostly Cloudy
6:53 PM 41.0 °F - 34.0 °F 76% 30.15 in 10.0 mi Calm Calm - N/A   Overcast
7:53 PM 42.1 °F - 35.1 °F 76% 30.15 in 10.0 mi Calm Calm - N/A   Overcast
8:53 PM 41.0 °F - 35.1 °F 79% 30.14 in 10.0 mi Calm Calm - N/A   Overcast
9:53 PM 42.1 °F - 36.0 °F 79% 30.13 in 10.0 mi Calm Calm - N/A   Overcast
10:53 PM 42.1 °F - 36.0 °F 79% 30.14 in 10.0 mi Calm Calm - N/A   Overcast
11:53 PM 37.9 °F - 34.0 °F 86% 30.14 in 10.0 mi Calm Calm - N/A   Scattered Clouds